Year,Month,Day,Hour,Minute,Value (Times are PST for windspeed in km/hr)
2019,06,13,00,00,6.30
2019,06,13,00,01,7.00
2019,06,13,00,02,8.10
2019,06,13,00,03,5.30
2019,06,13,00,04,9.00
2019,06,13,00,05,5.70
2019,06,13,00,06,11.30
2019,06,13,00,07,9.70
2019,06,13,00,08,6.30
2019,06,13,00,09,6.70
2019,06,13,00,10,11.60
2019,06,13,00,11,9.30
2019,06,13,00,12,9.50
2019,06,13,00,13,9.10
2019,06,13,00,14,7.70
2019,06,13,00,15,10.30
2019,06,13,00,16,11.50
2019,06,13,00,17,9.60
2019,06,13,00,18,10.50
2019,06,13,00,19,15.70
2019,06,13,00,20,10.00
2019,06,13,00,21,11.10
2019,06,13,00,22,7.10
2019,06,13,00,23,7.70
2019,06,13,00,24,6.80
2019,06,13,00,25,9.20
2019,06,13,00,26,8.30
2019,06,13,00,27,13.40
2019,06,13,00,28,11.60
2019,06,13,00,29,7.50
2019,06,13,00,30,8.50
2019,06,13,00,31,6.30
2019,06,13,00,32,5.20
2019,06,13,00,33,8.50
2019,06,13,00,34,5.90
2019,06,13,00,35,6.60
2019,06,13,00,36,9.00
2019,06,13,00,37,8.00
2019,06,13,00,38,8.10
2019,06,13,00,39,6.10
2019,06,13,00,40,4.80
2019,06,13,00,41,7.30
2019,06,13,00,42,9.50
2019,06,13,00,43,6.50
2019,06,13,00,44,5.00
2019,06,13,00,45,8.60
2019,06,13,00,46,9.90
2019,06,13,00,47,11.70
2019,06,13,00,48,13.20
2019,06,13,00,49,7.00
2019,06,13,00,50,10.70
2019,06,13,00,51,10.80
2019,06,13,00,52,8.70
2019,06,13,00,53,11.00
2019,06,13,00,54,8.50
2019,06,13,00,55,9.30
2019,06,13,00,56,7.40
2019,06,13,00,57,10.40
2019,06,13,00,58,9.80
2019,06,13,00,59,8.90
2019,06,13,01,00,5.80
2019,06,13,01,01,15.40
2019,06,13,01,02,12.20
2019,06,13,01,03,8.80
2019,06,13,01,04,13.00
2019,06,13,01,05,14.30
2019,06,13,01,06,10.00
2019,06,13,01,07,10.20
2019,06,13,01,08,12.10
2019,06,13,01,09,11.10
2019,06,13,01,10,12.10
2019,06,13,01,11,11.00
2019,06,13,01,12,12.70
2019,06,13,01,13,15.30
2019,06,13,01,14,11.40
2019,06,13,01,15,15.80
2019,06,13,01,16,6.40
2019,06,13,01,17,11.30
2019,06,13,01,18,12.40
2019,06,13,01,19,11.80
2019,06,13,01,20,11.30
2019,06,13,01,21,12.10
2019,06,13,01,22,9.90
2019,06,13,01,23,9.60
2019,06,13,01,24,12.70
2019,06,13,01,25,17.60
2019,06,13,01,26,16.00
2019,06,13,01,27,16.30
2019,06,13,01,28,15.30
2019,06,13,01,29,9.40
2019,06,13,01,30,12.20
2019,06,13,01,31,9.20
2019,06,13,01,32,8.70
2019,06,13,01,33,5.10
2019,06,13,01,34,6.10
2019,06,13,01,35,7.80
2019,06,13,01,36,7.60
2019,06,13,01,37,7.80
2019,06,13,01,38,10.20
2019,06,13,01,39,5.90
2019,06,13,01,40,9.00
2019,06,13,01,41,11.00
2019,06,13,01,42,8.10
2019,06,13,01,43,10.40
2019,06,13,01,44,12.20
2019,06,13,01,45,11.10
2019,06,13,01,46,11.30
2019,06,13,01,47,6.70
2019,06,13,01,48,8.00
2019,06,13,01,49,11.20
2019,06,13,01,50,8.70
2019,06,13,01,51,9.50
2019,06,13,01,52,10.00
2019,06,13,01,53,6.20
2019,06,13,01,54,7.70
2019,06,13,01,55,9.90
2019,06,13,01,56,7.00
2019,06,13,01,57,9.90
2019,06,13,01,58,6.60
2019,06,13,01,59,7.50
2019,06,13,02,00,10.40
2019,06,13,02,01,9.50
2019,06,13,02,02,7.20
2019,06,13,02,03,7.60
2019,06,13,02,04,9.30
2019,06,13,02,05,7.50
2019,06,13,02,06,9.80
2019,06,13,02,07,7.40
2019,06,13,02,08,7.00
2019,06,13,02,09,7.40
2019,06,13,02,10,6.30
2019,06,13,02,11,8.30
2019,06,13,02,12,9.20
2019,06,13,02,13,7.40
2019,06,13,02,14,5.50
2019,06,13,02,15,8.30
2019,06,13,02,16,10.00
2019,06,13,02,17,7.80
2019,06,13,02,18,9.10
2019,06,13,02,19,6.50
2019,06,13,02,20,6.40
2019,06,13,02,21,8.10
2019,06,13,02,22,8.40
2019,06,13,02,23,10.60
2019,06,13,02,24,7.50
2019,06,13,02,25,10.90
2019,06,13,02,26,6.10
2019,06,13,02,27,9.20
2019,06,13,02,28,11.90
2019,06,13,02,29,9.40
2019,06,13,02,30,6.50
2019,06,13,02,31,11.70
2019,06,13,02,32,8.70
2019,06,13,02,33,8.60
2019,06,13,02,34,7.80
2019,06,13,02,35,8.60
2019,06,13,02,36,6.80
2019,06,13,02,37,7.80
2019,06,13,02,38,9.20
2019,06,13,02,39,12.00
2019,06,13,02,40,11.80
2019,06,13,02,41,11.70
2019,06,13,02,42,10.10
2019,06,13,02,43,10.60
2019,06,13,02,44,10.60
2019,06,13,02,45,10.80
2019,06,13,02,46,9.40
2019,06,13,02,47,6.90
2019,06,13,02,48,5.00
2019,06,13,02,49,8.50
2019,06,13,02,50,8.80
2019,06,13,02,51,8.10
2019,06,13,02,52,8.50
2019,06,13,02,53,7.90
2019,06,13,02,54,8.20
2019,06,13,02,55,10.20
2019,06,13,02,56,7.10
2019,06,13,02,57,8.50
2019,06,13,02,58,5.40
2019,06,13,02,59,6.30
2019,06,13,03,00,6.60
2019,06,13,03,01,5.00
2019,06,13,03,02,1.70
2019,06,13,03,03,5.30
2019,06,13,03,04,4.40
2019,06,13,03,05,3.60
2019,06,13,03,06,4.30
2019,06,13,03,07,4.90
2019,06,13,03,08,4.50
2019,06,13,03,09,2.70
2019,06,13,03,10,2.70
2019,06,13,03,11,3.10
2019,06,13,03,12,1.20
2019,06,13,03,13,5.50
2019,06,13,03,14,3.10
2019,06,13,03,15,3.00
2019,06,13,03,16,2.20
2019,06,13,03,17,2.90
2019,06,13,03,18,2.70
2019,06,13,03,19,2.50
2019,06,13,03,20,0.90
2019,06,13,03,21,2.30
2019,06,13,03,22,0.70
2019,06,13,03,23,0.00
2019,06,13,03,24,0.00
2019,06,13,03,25,0.50
2019,06,13,03,26,1.70
2019,06,13,03,27,1.00
2019,06,13,03,28,0.80
2019,06,13,03,29,2.70
2019,06,13,03,30,2.70
2019,06,13,03,31,5.30
2019,06,13,03,32,3.90
2019,06,13,03,33,5.90
2019,06,13,03,34,6.20
2019,06,13,03,35,3.50
2019,06,13,03,36,3.00
2019,06,13,03,37,0.80
2019,06,13,03,38,1.70
2019,06,13,03,39,3.20
2019,06,13,03,40,1.80
2019,06,13,03,41,3.40
2019,06,13,03,42,3.40
2019,06,13,03,43,1.50
2019,06,13,03,44,3.20
2019,06,13,03,45,2.30
2019,06,13,03,46,3.80
2019,06,13,03,47,2.30
2019,06,13,03,48,5.00
2019,06,13,03,49,4.80
2019,06,13,03,50,4.80
2019,06,13,03,51,1.60
2019,06,13,03,52,3.40
2019,06,13,03,53,3.10
2019,06,13,03,54,2.60
2019,06,13,03,55,2.90
2019,06,13,03,56,2.80
2019,06,13,03,57,2.60
2019,06,13,03,58,5.20
2019,06,13,03,59,3.30
2019,06,13,04,00,1.80
2019,06,13,04,01,2.10
2019,06,13,04,02,5.90
2019,06,13,04,03,4.30
2019,06,13,04,04,4.90
2019,06,13,04,05,2.20
2019,06,13,04,06,7.60
2019,06,13,04,07,5.60
2019,06,13,04,08,5.50
2019,06,13,04,09,5.30
2019,06,13,04,10,7.40
2019,06,13,04,11,8.60
2019,06,13,04,12,8.00
2019,06,13,04,13,9.30
2019,06,13,04,14,7.80
2019,06,13,04,15,6.90
2019,06,13,04,16,6.90
2019,06,13,04,17,7.90
2019,06,13,04,18,8.80
2019,06,13,04,19,8.30
2019,06,13,04,20,5.80
2019,06,13,04,21,9.40
2019,06,13,04,22,5.30
2019,06,13,04,23,7.10
2019,06,13,04,24,4.90
2019,06,13,04,25,5.70
2019,06,13,04,26,7.60
2019,06,13,04,27,7.50
2019,06,13,04,28,7.70
2019,06,13,04,29,9.10
2019,06,13,04,30,7.40
2019,06,13,04,31,9.80
2019,06,13,04,32,7.00
2019,06,13,04,33,12.60
2019,06,13,04,34,10.50
2019,06,13,04,35,9.20
2019,06,13,04,36,8.50
2019,06,13,04,37,8.80
2019,06,13,04,38,8.10
2019,06,13,04,39,7.00
2019,06,13,04,40,8.20
2019,06,13,04,41,6.20
2019,06,13,04,42,5.30
2019,06,13,04,43,7.40
2019,06,13,04,44,5.20
2019,06,13,04,45,5.30
2019,06,13,04,46,6.80
2019,06,13,04,47,3.70
2019,06,13,04,48,2.20
2019,06,13,04,49,1.20
2019,06,13,04,50,5.50
2019,06,13,04,51,4.20
2019,06,13,04,52,6.20
2019,06,13,04,53,6.00
2019,06,13,04,54,4.80
2019,06,13,04,55,7.20
2019,06,13,04,56,5.80
2019,06,13,04,57,5.00
2019,06,13,04,58,7.40
2019,06,13,04,59,7.50
2019,06,13,05,00,9.10
2019,06,13,05,01,8.80
2019,06,13,05,02,7.90
2019,06,13,05,03,7.50
2019,06,13,05,04,8.00
2019,06,13,05,05,13.10
2019,06,13,05,06,13.10
2019,06,13,05,07,11.00
2019,06,13,05,08,7.20
2019,06,13,05,09,16.20
2019,06,13,05,10,8.80
2019,06,13,05,11,8.70
2019,06,13,05,12,9.90
2019,06,13,05,13,17.80
2019,06,13,05,14,14.30
2019,06,13,05,15,10.60
2019,06,13,05,16,13.50
2019,06,13,05,17,14.80
2019,06,13,05,18,9.30
2019,06,13,05,19,12.70
2019,06,13,05,20,17.60
2019,06,13,05,21,20.80
2019,06,13,05,22,13.50
2019,06,13,05,23,10.00
2019,06,13,05,24,8.90
2019,06,13,05,25,10.60
2019,06,13,05,26,15.40
2019,06,13,05,27,9.80
2019,06,13,05,28,6.90
2019,06,13,05,29,11.80
2019,06,13,05,30,11.30
2019,06,13,05,31,12.70
2019,06,13,05,32,10.50
2019,06,13,05,33,14.90
2019,06,13,05,34,11.20
2019,06,13,05,35,8.80
2019,06,13,05,36,8.00
2019,06,13,05,37,17.00
2019,06,13,05,38,16.60
2019,06,13,05,39,16.10
2019,06,13,05,40,19.30
2019,06,13,05,41,15.20
2019,06,13,05,42,14.70
2019,06,13,05,43,14.80
2019,06,13,05,44,17.00
2019,06,13,05,45,13.00
2019,06,13,05,46,9.90
2019,06,13,05,47,11.30
2019,06,13,05,48,11.90
2019,06,13,05,49,11.10
2019,06,13,05,50,8.50
2019,06,13,05,51,9.10
2019,06,13,05,52,8.80
2019,06,13,05,53,9.70
2019,06,13,05,54,11.10
2019,06,13,05,55,9.30
2019,06,13,05,56,13.80
2019,06,13,05,57,7.00
2019,06,13,05,58,7.30
2019,06,13,05,59,11.90
2019,06,13,06,00,9.40
2019,06,13,06,01,6.10
2019,06,13,06,02,5.10
2019,06,13,06,03,7.30
2019,06,13,06,04,9.90
2019,06,13,06,05,7.00
2019,06,13,06,06,6.50
2019,06,13,06,07,11.10
2019,06,13,06,08,8.20
2019,06,13,06,09,6.40
2019,06,13,06,10,6.30
2019,06,13,06,11,11.80
2019,06,13,06,12,10.20
2019,06,13,06,13,8.50
2019,06,13,06,14,7.80
2019,06,13,06,15,14.00
2019,06,13,06,16,14.00
2019,06,13,06,17,14.10
2019,06,13,06,18,13.00
2019,06,13,06,19,15.00
2019,06,13,06,20,14.30
2019,06,13,06,21,21.10
2019,06,13,06,22,15.90
2019,06,13,06,23,17.80
2019,06,13,06,24,15.70
2019,06,13,06,25,21.70
2019,06,13,06,26,14.50
2019,06,13,06,27,19.40
2019,06,13,06,28,22.10
2019,06,13,06,29,16.70
2019,06,13,06,30,15.70
2019,06,13,06,31,15.40
2019,06,13,06,32,12.70
2019,06,13,06,33,16.20
2019,06,13,06,34,16.30
2019,06,13,06,35,14.00
2019,06,13,06,36,15.80
2019,06,13,06,37,12.90
2019,06,13,06,38,15.00
2019,06,13,06,39,13.90
2019,06,13,06,40,13.00
2019,06,13,06,41,8.60
2019,06,13,06,42,10.80
2019,06,13,06,43,12.60
2019,06,13,06,44,12.90
2019,06,13,06,45,14.70
2019,06,13,06,46,13.40
2019,06,13,06,47,12.90
2019,06,13,06,48,14.60
2019,06,13,06,49,13.50
2019,06,13,06,50,16.20
2019,06,13,06,51,11.80
2019,06,13,06,52,12.10
2019,06,13,06,53,12.80
2019,06,13,06,54,12.00
2019,06,13,06,55,15.90
2019,06,13,06,56,14.10
2019,06,13,06,57,12.70
2019,06,13,06,58,11.90
2019,06,13,06,59,11.40
2019,06,13,07,00,11.50
2019,06,13,07,01,14.50
2019,06,13,07,02,17.70
2019,06,13,07,03,12.10
2019,06,13,07,04,13.30
2019,06,13,07,05,9.40
2019,06,13,07,06,9.70
2019,06,13,07,07,11.70
2019,06,13,07,08,11.00
2019,06,13,07,09,10.10
2019,06,13,07,10,10.80
2019,06,13,07,11,14.30
2019,06,13,07,12,15.50
2019,06,13,07,13,13.50
2019,06,13,07,14,9.90
2019,06,13,07,15,9.40
2019,06,13,07,16,11.80
2019,06,13,07,17,14.00
2019,06,13,07,18,11.70
2019,06,13,07,19,8.70
2019,06,13,07,20,9.00
2019,06,13,07,21,8.70
2019,06,13,07,22,6.70
2019,06,13,07,23,8.30
2019,06,13,07,24,13.90
2019,06,13,07,25,6.50
2019,06,13,07,26,12.30
2019,06,13,07,27,8.70
2019,06,13,07,28,8.80
2019,06,13,07,29,11.50
2019,06,13,07,30,15.80
2019,06,13,07,31,8.90
2019,06,13,07,32,11.00
2019,06,13,07,33,9.70
2019,06,13,07,34,18.10
2019,06,13,07,35,16.60
2019,06,13,07,36,12.30
2019,06,13,07,37,15.70
2019,06,13,07,38,18.70
2019,06,13,07,39,15.40
2019,06,13,07,40,13.70
2019,06,13,07,41,21.80
2019,06,13,07,42,15.10
2019,06,13,07,43,14.20
2019,06,13,07,44,13.60
2019,06,13,07,45,14.10
2019,06,13,07,46,8.50
2019,06,13,07,47,13.10
2019,06,13,07,48,16.80
2019,06,13,07,49,16.60
2019,06,13,07,50,10.50
2019,06,13,07,51,12.10
2019,06,13,07,52,7.60
2019,06,13,07,53,11.60
2019,06,13,07,54,10.90
2019,06,13,07,55,11.40
2019,06,13,07,56,13.20
2019,06,13,07,57,9.50
2019,06,13,07,58,10.70
2019,06,13,07,59,18.30
2019,06,13,08,00,15.90
2019,06,13,08,01,14.60
2019,06,13,08,02,10.70
2019,06,13,08,03,10.90
2019,06,13,08,04,13.10
2019,06,13,08,05,13.00
2019,06,13,08,06,9.20
2019,06,13,08,07,15.80
2019,06,13,08,08,14.00
2019,06,13,08,09,15.60
2019,06,13,08,10,10.80
2019,06,13,08,11,20.10
2019,06,13,08,12,10.20
2019,06,13,08,13,10.20
2019,06,13,08,14,14.30
2019,06,13,08,15,14.90
2019,06,13,08,16,12.50
2019,06,13,08,17,17.30
2019,06,13,08,18,22.00
2019,06,13,08,19,10.60
2019,06,13,08,20,8.60
2019,06,13,08,21,13.20
2019,06,13,08,22,13.10
2019,06,13,08,23,14.00
2019,06,13,08,24,15.20
2019,06,13,08,25,7.70
2019,06,13,08,26,8.50
2019,06,13,08,27,7.80
2019,06,13,08,28,9.20
2019,06,13,08,29,14.90
2019,06,13,08,30,16.40
2019,06,13,08,31,13.00
2019,06,13,08,32,13.60
2019,06,13,08,33,16.20
2019,06,13,08,34,14.80
2019,06,13,08,35,16.80
2019,06,13,08,36,16.30
2019,06,13,08,37,14.00
2019,06,13,08,38,12.70
2019,06,13,08,39,19.00
2019,06,13,08,40,15.80
2019,06,13,08,41,15.30
2019,06,13,08,42,18.90
2019,06,13,08,43,19.80
2019,06,13,08,44,17.30
2019,06,13,08,45,13.50
2019,06,13,08,46,9.90
2019,06,13,08,47,16.30
2019,06,13,08,48,12.40
2019,06,13,08,49,14.30
2019,06,13,08,50,13.60
2019,06,13,08,51,16.80
2019,06,13,08,52,13.50
2019,06,13,08,53,18.20
2019,06,13,08,54,9.90
2019,06,13,08,55,11.50
2019,06,13,08,56,12.50
2019,06,13,08,57,12.60
2019,06,13,08,58,10.10
2019,06,13,08,59,12.70
2019,06,13,09,00,10.00
2019,06,13,09,01,16.10
2019,06,13,09,02,17.70
2019,06,13,09,03,14.90
2019,06,13,09,04,15.10
2019,06,13,09,05,14.60
2019,06,13,09,06,18.00
2019,06,13,09,07,16.00
2019,06,13,09,08,19.40
2019,06,13,09,09,18.80
2019,06,13,09,10,11.60
2019,06,13,09,11,14.20
2019,06,13,09,12,17.00
2019,06,13,09,13,19.70
2019,06,13,09,14,19.50
2019,06,13,09,15,17.10
2019,06,13,09,16,20.30
2019,06,13,09,17,14.70
2019,06,13,09,18,12.80
2019,06,13,09,19,15.40
2019,06,13,09,20,17.50
2019,06,13,09,21,14.10
2019,06,13,09,22,10.50
2019,06,13,09,23,13.90
2019,06,13,09,24,15.80
2019,06,13,09,25,13.50
2019,06,13,09,26,12.10
2019,06,13,09,27,16.20
2019,06,13,09,28,11.60
2019,06,13,09,29,14.20
2019,06,13,09,30,14.60
2019,06,13,09,31,15.60
2019,06,13,09,32,20.10
2019,06,13,09,33,20.90
2019,06,13,09,34,17.50
2019,06,13,09,35,14.80
2019,06,13,09,36,19.60
2019,06,13,09,37,15.20
2019,06,13,09,38,10.20
2019,06,13,09,39,10.20
2019,06,13,09,40,18.40
2019,06,13,09,41,18.10
2019,06,13,09,42,10.70
2019,06,13,09,43,17.40
2019,06,13,09,44,11.30
2019,06,13,09,45,17.40
2019,06,13,09,46,14.60
2019,06,13,09,47,14.90
2019,06,13,09,48,15.10
2019,06,13,09,49,14.10
2019,06,13,09,50,14.30
2019,06,13,09,51,16.30
2019,06,13,09,52,13.20
2019,06,13,09,53,15.10
2019,06,13,09,54,9.40
2019,06,13,09,55,15.90
2019,06,13,09,56,16.20
2019,06,13,09,57,15.10
2019,06,13,09,58,8.10
2019,06,13,09,59,11.00
2019,06,13,10,00,14.50
2019,06,13,10,01,16.20
2019,06,13,10,02,15.30
2019,06,13,10,03,17.30
2019,06,13,10,04,14.20
2019,06,13,10,05,16.10
2019,06,13,10,06,13.60
2019,06,13,10,07,11.20
2019,06,13,10,08,20.30
2019,06,13,10,09,12.70
2019,06,13,10,10,10.70
2019,06,13,10,11,15.30
2019,06,13,10,12,10.40
2019,06,13,10,13,11.50
2019,06,13,10,14,15.20
2019,06,13,10,15,10.70
2019,06,13,10,16,17.00
2019,06,13,10,17,15.70
2019,06,13,10,18,22.50
2019,06,13,10,19,15.50
2019,06,13,10,20,17.70
2019,06,13,10,21,20.40
2019,06,13,10,22,22.00
2019,06,13,10,23,15.50
2019,06,13,10,24,13.70
2019,06,13,10,25,15.60
2019,06,13,10,26,20.80
2019,06,13,10,27,12.10
2019,06,13,10,28,11.60
2019,06,13,10,29,15.80
2019,06,13,10,30,17.20
2019,06,13,10,31,10.00
2019,06,13,10,32,16.40
2019,06,13,10,33,16.10
2019,06,13,10,34,16.50
2019,06,13,10,35,15.30
2019,06,13,10,36,14.80
2019,06,13,10,37,23.10
2019,06,13,10,38,16.90
2019,06,13,10,39,21.50
2019,06,13,10,40,23.50
2019,06,13,10,41,18.60
2019,06,13,10,42,15.60
2019,06,13,10,43,16.50
2019,06,13,10,44,17.20
2019,06,13,10,45,14.40
2019,06,13,10,46,18.80
2019,06,13,10,47,12.60
2019,06,13,10,48,14.50
2019,06,13,10,49,14.40
2019,06,13,10,50,22.50
2019,06,13,10,51,17.00
2019,06,13,10,52,12.00
2019,06,13,10,53,15.90
2019,06,13,10,54,20.30
2019,06,13,10,55,15.70
2019,06,13,10,56,20.90
2019,06,13,10,57,15.60
2019,06,13,10,58,16.20
2019,06,13,10,59,8.90
2019,06,13,11,00,18.00
2019,06,13,11,01,17.30
2019,06,13,11,02,17.30
2019,06,13,11,03,18.90
2019,06,13,11,04,18.70
2019,06,13,11,05,12.70
2019,06,13,11,06,14.20
2019,06,13,11,07,16.20
2019,06,13,11,08,17.50
2019,06,13,11,09,12.90
2019,06,13,11,10,14.60
2019,06,13,11,11,16.90
2019,06,13,11,12,19.20
2019,06,13,11,13,17.00
2019,06,13,11,14,16.30
2019,06,13,11,15,18.00
2019,06,13,11,16,18.10
2019,06,13,11,17,25.30
2019,06,13,11,18,21.10
2019,06,13,11,19,20.80
2019,06,13,11,20,17.50
2019,06,13,11,21,16.40
2019,06,13,11,22,15.30
2019,06,13,11,23,22.20
2019,06,13,11,24,17.30
2019,06,13,11,25,15.50
2019,06,13,11,26,16.10
2019,06,13,11,27,14.50
2019,06,13,11,28,20.20
2019,06,13,11,29,12.30
2019,06,13,11,30,21.10
2019,06,13,11,31,19.30
2019,06,13,11,32,15.50
2019,06,13,11,33,8.30
2019,06,13,11,34,11.60
2019,06,13,11,35,14.80
2019,06,13,11,36,12.70
2019,06,13,11,37,11.60
2019,06,13,11,38,11.60
2019,06,13,11,39,14.50
2019,06,13,11,40,19.20
2019,06,13,11,41,17.70
2019,06,13,11,42,20.40
2019,06,13,11,43,15.80
2019,06,13,11,44,18.90
2019,06,13,11,45,15.70
2019,06,13,11,46,12.30
2019,06,13,11,47,17.00
2019,06,13,11,48,13.70
2019,06,13,11,49,18.20
2019,06,13,11,50,17.70
2019,06,13,11,51,12.20
2019,06,13,11,52,16.60
2019,06,13,11,53,20.70
2019,06,13,11,54,16.80
2019,06,13,11,55,18.50
2019,06,13,11,56,18.80
2019,06,13,11,57,20.80
2019,06,13,11,58,22.40
2019,06,13,11,59,15.80
2019,06,13,12,00,21.80
2019,06,13,12,01,17.10
2019,06,13,12,02,8.70
2019,06,13,12,03,15.80
2019,06,13,12,04,22.40
2019,06,13,12,05,18.20
2019,06,13,12,06,23.00
2019,06,13,12,07,17.20
2019,06,13,12,08,18.00
2019,06,13,12,09,12.70
2019,06,13,12,10,14.80
2019,06,13,12,11,21.50
2019,06,13,12,12,18.90
2019,06,13,12,13,25.30
2019,06,13,12,14,16.70
2019,06,13,12,15,20.20
2019,06,13,12,16,21.40
2019,06,13,12,17,20.50
2019,06,13,12,18,11.30
2019,06,13,12,19,15.80
2019,06,13,12,20,15.20
2019,06,13,12,21,20.30
2019,06,13,12,22,23.70
2019,06,13,12,23,28.20
2019,06,13,12,24,27.40
2019,06,13,12,25,19.70
2019,06,13,12,26,22.30
2019,06,13,12,27,23.30
2019,06,13,12,28,20.10
2019,06,13,12,29,15.50
2019,06,13,12,30,27.00
2019,06,13,12,31,25.70
2019,06,13,12,32,25.70
2019,06,13,12,33,25.70
2019,06,13,12,34,25.70
2019,06,13,12,35,25.70
2019,06,13,12,36,25.70
2019,06,13,12,37,25.70
2019,06,13,12,38,25.70
2019,06,13,12,39,25.70
2019,06,13,12,55,15.60
2019,06,13,12,56,25.10
2019,06,13,12,57,29.00
2019,06,13,12,58,17.60
2019,06,13,12,59,18.90
2019,06,13,13,00,14.60
2019,06,13,13,01,13.60
2019,06,13,13,02,22.80
2019,06,13,13,03,17.00
2019,06,13,13,04,15.10
2019,06,13,13,05,18.80
2019,06,13,13,06,19.00
2019,06,13,13,07,15.10
2019,06,13,13,08,19.70
2019,06,13,13,09,18.90
2019,06,13,13,10,20.30
2019,06,13,13,11,22.20
2019,06,13,13,12,19.70
2019,06,13,13,13,16.70
2019,06,13,13,14,17.40
2019,06,13,13,15,20.20
2019,06,13,13,16,18.10
2019,06,13,13,17,10.80
2019,06,13,13,18,18.40
2019,06,13,13,19,18.90
2019,06,13,13,20,19.00
2019,06,13,13,21,15.60
2019,06,13,13,22,23.40
2019,06,13,13,23,21.40
2019,06,13,13,24,20.90
2019,06,13,13,25,17.50
2019,06,13,13,26,22.50
2019,06,13,13,27,13.50
2019,06,13,13,28,20.30
2019,06,13,13,29,18.90
2019,06,13,13,30,10.90
2019,06,13,13,31,19.30
2019,06,13,13,32,23.50
2019,06,13,13,33,21.50
2019,06,13,13,34,17.80
2019,06,13,13,35,19.90
2019,06,13,13,36,21.70
2019,06,13,13,37,20.30
2019,06,13,13,38,19.00
2019,06,13,13,39,22.40
2019,06,13,13,40,19.20
2019,06,13,13,41,16.60
2019,06,13,13,42,23.70
2019,06,13,13,43,19.30
2019,06,13,13,44,18.10
2019,06,13,13,45,10.70
2019,06,13,13,46,13.20
2019,06,13,13,47,12.10
2019,06,13,13,48,18.70
2019,06,13,13,49,10.00
2019,06,13,13,50,14.60
2019,06,13,13,51,13.10
2019,06,13,13,52,4.20
2019,06,13,13,53,11.30
2019,06,13,13,54,17.60
2019,06,13,13,55,17.60
2019,06,13,13,56,16.20
2019,06,13,13,57,16.30
2019,06,13,13,58,17.20
2019,06,13,13,59,15.40
2019,06,13,14,00,13.00
2019,06,13,14,01,15.80
2019,06,13,14,02,12.60
2019,06,13,14,03,18.80
2019,06,13,14,04,15.30
2019,06,13,14,05,9.40
2019,06,13,14,06,12.30
2019,06,13,14,07,10.50
2019,06,13,14,08,15.40
2019,06,13,14,09,12.00
2019,06,13,14,10,13.90
2019,06,13,14,11,14.10
2019,06,13,14,12,14.10
2019,06,13,14,13,11.50
2019,06,13,14,14,11.00
2019,06,13,14,15,12.70
2019,06,13,14,16,5.60
2019,06,13,14,17,15.10
2019,06,13,14,18,18.30
2019,06,13,14,19,19.70
2019,06,13,14,20,15.30
2019,06,13,14,21,10.50
2019,06,13,14,22,9.40
2019,06,13,14,23,12.60
2019,06,13,14,24,16.00
2019,06,13,14,25,13.30
2019,06,13,14,26,12.20
2019,06,13,14,27,8.70
2019,06,13,14,28,15.90
2019,06,13,14,29,16.90
2019,06,13,14,30,16.50
2019,06,13,14,31,8.50
2019,06,13,14,32,11.00
2019,06,13,14,33,8.20
2019,06,13,14,34,9.90
2019,06,13,14,35,13.20
2019,06,13,14,36,9.20
2019,06,13,14,37,13.90
2019,06,13,14,38,7.40
2019,06,13,14,39,11.10
2019,06,13,14,40,7.00
2019,06,13,14,41,6.70
2019,06,13,14,42,12.00
2019,06,13,14,43,15.00
2019,06,13,14,44,19.20
2019,06,13,14,45,14.70
2019,06,13,14,46,16.50
2019,06,13,14,47,13.70
2019,06,13,14,48,20.60
2019,06,13,14,49,11.60
2019,06,13,14,50,16.00
2019,06,13,14,51,12.50
2019,06,13,14,52,11.30
2019,06,13,14,53,18.80
2019,06,13,14,54,15.70
2019,06,13,14,55,17.70
2019,06,13,14,56,16.00
2019,06,13,14,57,16.60
2019,06,13,14,58,22.20
2019,06,13,14,59,14.80
2019,06,13,15,00,16.50
2019,06,13,15,01,16.50
2019,06,13,15,02,19.00
2019,06,13,15,03,24.40
2019,06,13,15,04,15.20
2019,06,13,15,05,16.60
2019,06,13,15,06,19.90
2019,06,13,15,07,14.50
2019,06,13,15,08,13.40
2019,06,13,15,09,17.00
2019,06,13,15,10,17.90
2019,06,13,15,11,13.20
2019,06,13,15,12,13.70
2019,06,13,15,13,14.90
2019,06,13,15,14,17.60
2019,06,13,15,15,18.70
2019,06,13,15,16,21.10
2019,06,13,15,17,18.90
2019,06,13,15,18,15.30
2019,06,13,15,19,8.50
2019,06,13,15,20,13.60
2019,06,13,15,21,13.00
2019,06,13,15,22,11.10
2019,06,13,15,23,10.20
2019,06,13,15,24,12.10
2019,06,13,15,25,8.40
2019,06,13,15,26,10.10
2019,06,13,15,27,12.30
2019,06,13,15,28,14.80
2019,06,13,15,29,15.20
2019,06,13,15,30,9.70
2019,06,13,15,31,16.50
2019,06,13,15,32,15.50
2019,06,13,15,33,12.90
2019,06,13,15,34,11.30
2019,06,13,15,35,14.30
2019,06,13,15,36,15.60
2019,06,13,15,37,12.00
2019,06,13,15,38,14.50
2019,06,13,15,39,16.30
2019,06,13,15,40,14.50
2019,06,13,15,41,22.00
2019,06,13,15,42,20.20
2019,06,13,15,43,17.50
2019,06,13,15,44,17.10
2019,06,13,15,45,22.10
2019,06,13,15,46,21.40
2019,06,13,15,47,25.20
2019,06,13,15,48,25.30
2019,06,13,15,49,27.40
2019,06,13,15,50,13.40
2019,06,13,15,51,21.10
2019,06,13,15,52,19.70
2019,06,13,15,53,21.50
2019,06,13,15,54,15.70
2019,06,13,15,55,18.40
2019,06,13,15,56,19.30
2019,06,13,15,57,21.50
2019,06,13,15,58,21.60
2019,06,13,15,59,19.40
2019,06,13,16,00,10.90
2019,06,13,16,01,18.90
2019,06,13,16,02,17.20
2019,06,13,16,03,19.60
2019,06,13,16,04,16.90
2019,06,13,16,05,15.10
2019,06,13,16,06,13.20
2019,06,13,16,07,19.00
2019,06,13,16,08,14.80
2019,06,13,16,09,16.90
2019,06,13,16,10,17.00
2019,06,13,16,11,13.30
2019,06,13,16,12,14.20
2019,06,13,16,13,15.20
2019,06,13,16,14,15.40
2019,06,13,16,15,11.60
2019,06,13,16,16,18.40
2019,06,13,16,17,14.40
2019,06,13,16,18,22.00
2019,06,13,16,19,22.80
2019,06,13,16,20,12.70
2019,06,13,16,21,8.90
2019,06,13,16,22,19.20
2019,06,13,16,23,12.70
2019,06,13,16,24,23.40
2019,06,13,16,25,19.50
2019,06,13,16,26,14.30
2019,06,13,16,27,19.60
2019,06,13,16,28,17.40
2019,06,13,16,29,20.70
2019,06,13,16,30,19.50
2019,06,13,16,31,12.10
2019,06,13,16,32,19.20
2019,06,13,16,33,17.60
2019,06,13,16,34,29.80
2019,06,13,16,35,21.90
2019,06,13,16,36,21.40
2019,06,13,16,37,24.30
2019,06,13,16,38,21.70
2019,06,13,16,39,23.00
2019,06,13,16,40,20.80
2019,06,13,16,41,18.10
2019,06,13,16,42,25.60
2019,06,13,16,43,22.80
2019,06,13,16,44,19.00
2019,06,13,16,45,16.20
2019,06,13,16,46,16.10
2019,06,13,16,47,13.50
2019,06,13,16,48,18.10
2019,06,13,16,49,20.90
2019,06,13,16,50,13.70
2019,06,13,16,51,17.90
2019,06,13,16,52,11.90
2019,06,13,16,53,13.90
2019,06,13,16,54,19.80
2019,06,13,16,55,19.70
2019,06,13,16,56,12.00
2019,06,13,16,57,23.00
2019,06,13,16,58,27.30
2019,06,13,16,59,26.50
2019,06,13,17,00,14.60
2019,06,13,17,01,16.40
2019,06,13,17,02,18.80
2019,06,13,17,03,26.10
2019,06,13,17,04,28.60
2019,06,13,17,05,17.70
2019,06,13,17,06,24.90
2019,06,13,17,07,23.00
2019,06,13,17,08,21.00
2019,06,13,17,09,16.40
2019,06,13,17,10,21.30
2019,06,13,17,11,21.70
2019,06,13,17,12,31.20
2019,06,13,17,13,23.00
2019,06,13,17,14,20.00
2019,06,13,17,15,31.50
2019,06,13,17,16,33.10
2019,06,13,17,17,25.00
2019,06,13,17,18,25.50
2019,06,13,17,19,21.70
2019,06,13,17,20,28.80
2019,06,13,17,21,26.40
2019,06,13,17,22,26.40
2019,06,13,17,23,22.30
2019,06,13,17,24,24.40
2019,06,13,17,25,24.70
2019,06,13,17,26,30.60
2019,06,13,17,27,19.40
2019,06,13,17,28,19.90
2019,06,13,17,29,27.50
2019,06,13,17,30,20.70
2019,06,13,17,31,20.20
2019,06,13,17,32,15.10
2019,06,13,17,33,19.60
2019,06,13,17,34,24.70
2019,06,13,17,35,24.00
2019,06,13,17,36,18.20
2019,06,13,17,37,22.80
2019,06,13,17,38,21.60
2019,06,13,17,39,23.30
2019,06,13,17,40,30.60
2019,06,13,17,41,30.30
2019,06,13,17,42,29.00
2019,06,13,17,43,28.90
2019,06,13,17,44,25.20
2019,06,13,17,45,20.70
2019,06,13,17,46,16.10
2019,06,13,17,47,17.60
2019,06,13,17,48,21.10